Regional Weather Roundup
Issued by NWS

Home | Current Version | Previous Version | Text Only | Print | Product List | Glossary Off
Versions: 1 2 3 4 5 6 7 8 9 10 11 12 13 14 15 16 17 18 19 20 21 22 23 24 25 26 27 28 29 30 31 32 33 34 35 36 37 38 39 40 41 42 43 44 45 46 47 48 49 50

000
ASUS43 KMPX 190001
RWRMN
WEATHER ROUNDUP FOR MINNESOTA
NATIONAL WEATHER SERVICE TWIN CITIES/CHANHASSEN MN
700 PM CDT WED OCT 18 2017


NOTE: "FAIR" INDICATES FEW OR NO CLOUDS BELOW 12,000 FEET WITH NO
SIGNIFICANT WEATHER AND/OR OBSTRUCTIONS TO VISIBILITY. N/A MEANS
CURRENT SKY AND/OR WEATHER CONDITIONS ARE NOT AVAILABLE.

MNZ060>063-068>070-190100-
   Twin Cities Metro

CITY           SKY/WX    TMP DP  RH WIND       PRES   REMARKS
TWIN CITIES    CLOUDY    62  17  17 W10G25    29.93R
6HR MIN TEMP:  62; 6HR MAX TEMP:  73;

ST PAUL        CLOUDY    62  17  17 W14       29.93R
CRYSTAL        CLOUDY    59  18  20 W10       29.92R
BLAINE         MOCLDY    63  18  17 W14G25    29.91R
LAKEVILLE      CLOUDY    57  28  33 W6        29.94R
EDEN PRAIRIE   CLOUDY    61  21  21 W10       29.93R
6HR MIN TEMP:  61; 6HR MAX TEMP:  73;

SOUTH ST PAUL  CLOUDY    64  15  15 W13G24    29.92R
LAKE ELMO      FAIR      61  27  27 W16G25    29.92R
$$
MNZ001>005-007-008-013>017-022>024-027-028-190100-
   Northwest Minnesota

CITY           SKY/WX    TMP DP  RH WIND       PRES   REMARKS
BEMIDJI        CLEAR     52  13  21 W17G25    29.83R
HALLOCK        CLEAR     54   9  16 W22G28    29.76R
ROSEAU         CLEAR     55   9  15 W15G26    29.73R
WARROAD        CLEAR     54  18  24 W18G26    29.72R
CROOKSTON      CLEAR     54  18  24 W23       29.86R
FOSSTON        CLEAR     50  10  20 W17       29.86R
DETROIT LAKES  CLEAR     52  18  25 W10       29.92R
MOORHEAD       CLEAR     54  19  26 W9        29.93R
PARK RAPIDS    LGT RAIN  53  15  22 W20G30    29.88R
MAHNOMEN       FAIR      52  16  23 W16G22    29.88R
$$
MNZ006-009>011-018-025>026-190100-
   North Central Minnesota

CITY           SKY/WX    TMP DP  RH WIND       PRES   REMARKS
BAUDETTE       CLEAR     53  11  18 W14G26    29.71R
FLAG ISLAND    CLEAR     54  14  20 W20G25    29.64R
INTL FALLS     CLEAR     53  14  21 W13G21    29.70R
6HR MIN TEMP:  53; 6HR MAX TEMP:  62;

WASKISH        CLEAR     54  30  40 W17G24    29.77R
BIG FORK       CLEAR     55  12  18 W12G22    29.77R
LONGVILLE      CLOUDY    54  12  19 W10       29.84R
GRAND RAPIDS   CLEAR     55  13  18 W13G23    29.83R
CRANE LAKE     CLEAR     54  10  17 SW7       29.72R
ORR            CLEAR     54   9  16 W9G20     29.72R
COOK           CLEAR     54  16  22 W9        29.75R
WALKER         FAIR      53  15  22 W12G17    29.84R
$$
MNZ012-019>021-037-190100-
   Northeast Minnesota

CITY           SKY/WX    TMP DP  RH WIND       PRES   REMARKS
DULUTH         CLEAR     55  16  21 W15       29.79R
6HR MIN TEMP:  55; 6HR MAX TEMP:  68;

ELY            CLEAR     54  12  19 W13G18    29.72R
HIBBING        CLEAR     53  15  22 W12G17    29.78R
EVELETH        CLEAR     53  -2  10 W10G17    29.78R
DULUTH HARBOR  CLEAR     61  21  21 SW15      29.79R
TWO HARBORS    CLEAR     59  27  29 W9        29.75R
SILVER BAY     CLEAR     57  12  17 W9G16     29.72R
GRAND MARAIS     N/A     58  19  22 W9G20     29.68R
G MARAIS ARPRT CLEAR     52   9  17 W14G25    29.70R
$$
MNZ029>031-032-039>041-046>048-054>057-064-190100-
   West Central Minnesota

CITY           SKY/WX    TMP DP  RH WIND       PRES   REMARKS
FERGUS FALLS   PTCLDY    52  25  35 W10       29.96R
WHEATON        PTCLDY    54  21  28 SW5       29.99R
MORRIS         CLOUDY    52  32  46 W7        29.97R
ALEXANDRIA     CLOUDY    54  22  28 W13       29.96R
ELBOW LAKE     FAIR      51  24  35 W9        29.97R
WADENA         LGT RAIN  50  21  32 W7        29.92R
GLENWOOD       CLOUDY    52  28  40 W10       29.97R
APPLETON       CLOUDY    54  28  37 W7        29.99R
BENSON         CLOUDY    52  30  43 W8        30.00R
ORTONVILLE     PTCLDY    54  27  35 W3        29.99R
MADISON        CLOUDY    54  30  40 W5        30.01R
WILLMAR        FAIR      54  32  43 W7        30.01R
$$
MNZ033>034-036-042>043-049>051-058-059-190100-
   Central Minnesota

CITY           SKY/WX    TMP DP  RH WIND       PRES   REMARKS
ST CLOUD       PTCLDY    55  26  32 W14       29.94R
6HR MIN TEMP:  55; 6HR MAX TEMP:  70;

SAUK CENTRE    FAIR      51  30  45 W10       29.96R
PAYNESVILLE    CLOUDY    50  30  46 W9        29.98R
AITKIN         CLOUDY    54  18  24 W7        29.84R
PINE RIVER     PTCLDY    52  19  28 W8        29.91R
BRAINERD       CLOUDY    56  13  18 W13       29.89R
STAPLES        PTCLDY    52  16  24 W12       29.91R
LONG PRAIRIE   FAIR      52  27  37 SW12      29.95R
LITTLE FALLS   MOCLDY    54  12  19 W7        29.93R
LITCHFIELD     CLOUDY    55  30  38 W5        29.98R
BUFFALO        CLOUDY    56  25  29 W8        29.96R
MAPLE LAKE     PTCLDY    57  27  32 W10       29.96R
HUTCHINSON     CLEAR     56  29  35 W6        29.99R
$$
MNZ037-044-045-052-053-190100-
   East Central Minnesota

CITY           SKY/WX    TMP DP  RH WIND       PRES   REMARKS
PRINCETON      CLOUDY    57  23  26 W10       29.92R
MORA           CLOUDY    55  21  26 W9        29.91R
CAMBRIDGE      CLOUDY    61  36  39 W12G18    29.91R
RUSH CITY      CLOUDY    57  23  27 W8G20     29.90R
MOOSE LAKE     CLOUDY    55  23  28 W8        29.82R
HINCKLEY       FAIR      55  23  28 W10       29.87R
CLOQUET        CLOUDY    55  12  18 W8        29.81R
MCGREGOR       CLOUDY    55  19  24 W9G17     29.85R
$$
MNZ071>073-080-081-089-090-097-098-190100-
   Southwest Minnesota

CITY           SKY/WX    TMP DP  RH WIND       PRES   REMARKS
MONTEVIDEO     PTCLDY    54  27  35 NW3       30.01R
GRANITE FALLS  CLEAR     52  32  47 W7        30.02R
CANBY          CLEAR     55  31  41 NW5       30.02R
MARSHALL       CLEAR     54  29  38 NW8       30.02R
REDWOOD FALLS  CLEAR     56  25  30 NW9       30.00R
OLIVIA         PTCLDY    54  28  37 NW6       29.99R
PIPESTONE      CLEAR     57  23  26 NW5       30.03R
WORTHINGTON    CLEAR     57  35  43 NW3       30.03R
JACKSON        CLEAR     55  32  41 N6        30.02R
TRACY          CLEAR     57  32  39 NW7       30.02R
SLAYTON        CLEAR     54  32  43 NW6       30.04R
$$
MNZ065>067-074>077-082>085-091>093-190100-
   South Central Minnesota

CITY           SKY/WX    TMP DP  RH WIND       PRES   REMARKS
MANKATO        CLOUDY    60  27  28 NW7       29.98R
NEW ULM        CLOUDY    57  27  30 NW6       29.99R
ST JAMES       CLOUDY    59  32  36 W8        30.00R
FAIRMONT       CLEAR     58  36  43 NW6       30.00R
GLENCOE        CLEAR     59  29  32 W8        29.96R
FARIBAULT      CLOUDY    63  30  29 W8        29.96R
OWATONNA       PTCLDY    59  36  41 W7        29.97R
WASECA         CLOUDY    59  30  33 NW7       29.98R
$$
MNZ078>079-086>088-094>096-190100-
   Southeast Minnesota

CITY           SKY/WX    TMP DP  RH WIND       PRES   REMARKS
ROCHESTER      CLOUDY    58  46  64 W10       29.95R
6HR MIN TEMP:  58; 6HR MAX TEMP:  71;

RED WING       CLOUDY    63  27  25 W7        29.89R
STANTON        CLOUDY    63  29  27 W8        29.93R
DODGE CENTER   CLOUDY    61  39  44 W7        29.96R
WINONA         PTCLDY    70  46  43 W6        29.91R
AUSTIN         PTCLDY    63  41  45 CALM      29.96R
PRESTON        CLOUDY    60  45  59 W8        29.96R
$$
ABBREVIATIONS USED IN REMARKS
   TC - TEMPERATURES IN CELSIUS
  WCI - WIND CHILL INDEX
   HX - HEAT INDEX
  VSB - VISIBILITY
$$




USA.gov is the U.S. government's official web portal to all federal, state and local government web resources and services.